Flag for United Kingdom Weather past 2 weeks in Crawley, England, United Kingdom

Now
52 °F

Clear.


Feels Like: 52 °F
Forecast: 41 / 64 °F
Wind: No wind

Location: London / Gatwick Airport

Current Time: Sep 22, 2014 at 10:06:32 PM

Latest Report: Sep 22, 2014 at 9:20 PM


Visibility: 4 mi

Pressure: 30.27 "Hg

Humidity: 82%

Dew point: 46 °F

Location of CrawleyLocation

Historic Weather in Crawley — Graph

°F

Crawley temperature yesterday

Maximum temperature yesterday: 64 °F (at 12:50 PM)
Minimum temperature yesterday: 52 °F (at 10:20 PM)
Average temperature yesterday: 59 °F

Past Weeks' High & Low Weather Summary

 TemperatureHumidityPressure
High77 °F (Sep 18, 1:50 PM)100% (Sep 8, 1:20 AM)30.33 "Hg (Sep 8, 1:20 AM)
Low45 °F (Sep 22, 4:50 AM)43% (Sep 8, 1:50 PM)29.77 "Hg (Sep 18, 4:50 AM)
Average61 °F82%30.08 "Hg
* Reported Sep 7 8:20 PM — Sep 22 8:50 PM, Crawley, Weather by CustomWeather, © 2014

Note: Actual official high and low records may vary slightly from our data, if they occured in-between our weather recording intervals... More about our weather records

Advertising

Crawley weather history for previous 24 hours

 ConditionsComfort  
Time TempWeatherWind HumidityBarometerVisibility
8:50 PM
Sep 22
54 °FClear.No wind77%30.27 "Hg4 mi
8:20 PM54 °FClear.2 mph77%30.24 "Hg5 mi
7:50 PM54 °FClear.2 mph77%30.24 "Hg6 mi
7:20 PM57 °FClear.2 mph67%30.24 "Hg6 mi
6:50 PM59 °FPassing clouds.5 mph63%30.24 "HgN/A
6:20 PM63 °FSunny.5 mph56%30.24 "Hg10 mi
5:50 PM63 °FPassing clouds.6 mph56%30.24 "HgN/A
5:20 PM63 °FPassing clouds.6 mph56%30.24 "HgN/A
4:50 PM64 °FPassing clouds.6 mph52%30.24 "HgN/A
4:20 PM63 °FPassing clouds.5 mph56%30.24 "HgN/A
3:50 PM63 °FPassing clouds.7 mph56%30.27 "HgN/A
3:20 PM64 °FPassing clouds.6 mph52%30.27 "HgN/A
2:50 PM63 °FPassing clouds.3 mph56%30.27 "Hg6 mi
2:20 PM63 °FPassing clouds.6 mph56%30.27 "Hg6 mi
1:50 PM63 °FPassing clouds.7 mph56%30.30 "HgN/A
1:20 PM63 °FPassing clouds.5 mph56%30.30 "HgN/A
12:50 PM63 °FPassing clouds.8 mph56%30.30 "HgN/A
12:20 PM61 °FPassing clouds.6 mph59%30.30 "HgN/A
11:50 AM61 °FPassing clouds.7 mph55%30.30 "HgN/A
11:20 AM59 °FPassing clouds.6 mph63%30.30 "Hg5 mi
10:50 AM57 °FClear.5 mph67%30.30 "Hg5 mi
10:20 AM54 °FClear.5 mph82%30.33 "Hg4 mi
9:50 AM52 °FPassing clouds.3 mph88%30.33 "Hg4 mi
9:20 AM50 °FHaze.3 mph88%30.33 "Hg3 mi
8:50 AM50 °FHaze.5 mph88%30.33 "Hg3 mi
8:20 AM48 °FClear.5 mph87%30.33 "Hg4 mi
7:50 AM48 °FHaze.6 mph87%30.33 "Hg3 mi
7:20 AM46 °FHaze.7 mph93%30.30 "Hg3 mi
6:50 AM46 °FClear.6 mph93%30.30 "Hg5 mi
6:20 AM48 °FClear.6 mph87%30.30 "Hg4 mi
5:50 AM46 °FHaze.6 mph100%30.30 "Hg3 mi
5:20 AM45 °FHaze.2 mph93%30.30 "Hg3 mi
4:50 AM45 °FHaze.2 mph100%30.30 "Hg3 mi
4:20 AM46 °FHaze.No wind93%30.30 "Hg3 mi
3:50 AM46 °FClear.2 mph93%30.30 "Hg4 mi
3:20 AM46 °FClear.2 mph100%30.30 "Hg4 mi
2:50 AM46 °FClear.3 mph93%30.33 "Hg5 mi
2:20 AM46 °FClear.3 mph93%30.33 "Hg6 mi
1:50 AM48 °FClear.2 mph87%30.33 "Hg10 mi
12:50 AM50 °FPassing clouds.5 mph88%30.30 "HgN/A
12:20 AM52 °FPassing clouds.6 mph88%30.30 "HgN/A
11:50 PM
Sep 21
54 °FClear.7 mph82%30.33 "Hg10 mi
11:20 PM54 °FPassing clouds.5 mph82%30.33 "HgN/A
10:50 PM52 °FClear.3 mph82%30.30 "Hg10 mi
10:20 PM52 °FClear.3 mph82%30.30 "Hg10 mi
Weather by CustomWeather, © 2014

See weather overviewHow to use our weather pages